Regional Weather Roundup
Issued by NWS Portland, ME

Home | Current Version | Previous Version | Text Only | Print | Product List | Glossary On
Versions: 1 2 3 4 5 6 7 8 9 10 11 12 13 14 15 16 17 18 19 20 21 22 23 24 25 26 27 28 29 30 31 32 33 34 35 36 37 38 39 40 41 42 43 44 45 46 47 48 49 50
000
ASUS41 KGYX 292010
RWRGYX
WEATHER ROUNDUP FOR MAINE AND NEW HAMPSHIRE
NATIONAL WEATHER SERVICE GRAY ME
400 PM EDT WED JUL 29 2015

MEZ002-005-006-010-012-015-018-020-021-024-026-027-029-292100-
MAINE

CITY           SKY/WX    TMP DP  RH WIND       PRES   REMARKS
PORTLAND       PTSUNNY   84  68  58 S14       29.87F
SANFORD        PTSUNNY   86  66  51 E6        29.89S
BAR HARBOR     PTSUNNY   81  66  61 SW10      29.88S
WISCASSET      CLOUDY    76  69  79 SW6       29.90F
ROCKLAND       PTSUNNY   79  66  65 S8        29.87S
FRYEBURG       PTSUNNY   92  68  45 VRB7      29.88F HX  96
LEWISTONAUBURN PTSUNNY   79  66  65 E10G18    29.90S
AUGUSTA        PTSUNNY   76  66  71 SW6       29.89F
WATERVILLE     PTSUNNY   84  70  61 S3        29.84S
BANGOR         PTSUNNY   86  63  45 CALM      29.87F
GREENVILLE       N/A     82  60  47 N7        29.90F
MILLINOCKET    PTSUNNY   86  54  33 N7        29.88F
HOULTON        PTSUNNY   81  53  37 NE12      29.88F
PRESQUE ISLE   PTSUNNY   79  50  36 N7        29.90S
FRENCHVILLE    MOSUNNY   75  55  49 W8        29.91F
CARIBOU        PTSUNNY   79  52  38 VRB7      29.89F
$$

NHZ002-005-008-009-011-012-014-292100-
NEW HAMPSHIRE

CITY           SKY/WX    TMP DP  RH WIND       PRES   REMARKS
PORTSMOUTH     PTSUNNY   92  65  40 SW6       29.86F HX  94
ROCHESTER      PTSUNNY   91  64  40 VRB3      29.87F HX  92
NASHUA         MOSUNNY   93  64  38 W9        29.89F HX  95
MANCHESTER     PTSUNNY   93  62  35 W8        29.87F HX  93
CONCORD        MOSUNNY   94  61  33 VRB6      29.89F HX  94
LACONIA        SUNNY     90  63  40 NW8       29.88S HX  90
PLYMOUTH       FAIR      89  70  52 W3        29.89F HX  94
BERLIN         LGT RAIN  76  70  82 CALM      29.93R
WHITEFIELD     PTSUNNY   86  68  54 CALM      29.92F
JAFFREY        SUNNY     89  64  43 SW7       29.96F HX  90
KEENE          SUNNY     91  66  43 SW10      29.91F HX  94
LEBANON        MOSUNNY   92  64  39 VRB6      29.89F HX  93
MT WASHINGTON  FOG       57  57 100 W30         N/A  VSB 0
$$

VTZ005-007-008-292100-
VERMONT

CITY           SKY/WX    TMP DP  RH WIND       PRES   REMARKS
ST JOHNSBURY     N/A     89  63  41 MISG      29.89S HX  90
MONTPELIER     SUNNY     89  63  41 MISG      29.97F HX  90
BURLINGTON     MOSUNNY   92  67  43 S8        29.88F HX  95
$$

MAZ007-012-024-CTZ003-RIZ002-NYZ038-NYZ072-292100-
SOUTHERN NEW ENGLAND AND NY

CITY           SKY/WX    TMP DP  RH WIND       PRES   REMARKS
BOSTON         PTSUNNY   88  68  51 E7        29.89F HX  91
WORCESTER      MOSUNNY   88  63  43 W7        29.96F
NANTUCKET      PTSUNNY   83  69  62 W13       29.94F
PROVIDENCE     MOSUNNY   93  66  40 W10       29.91F HX  96
HARTFORD       PTSUNNY   94  62  34 NW8       29.90F HX  94
ALBANY         PTSUNNY   94  63  35 VRB6      29.91F HX  95
NEW YORK CITY  PTSUNNY   94  62  34 S15G23    29.91F HX  94
$$

ANZ081-ANZ082-ANZ150-NHZ014-MEZ023>029-292100-
COASTAL MARINE OBSERVATIONS

STATION/POSITION TIME  TEMP    WIND        PRES    WAVE
                       AIR SEA DIR/SP/G            HT/PER
                 (UTC) (F)     (DEG/KT/KT) (MB)    (FT/S)
MOUNT DESERT ROC 2000   68     180/  9/  9 1012.6F
MATINICUS ROCK   1900   68     210/ 12/ 12 1012.4F
ISLE OF SHOALS   1900   79     170/ 18/ 19 1011.8F
JEFFREYS LEDGE   1903      66                N/A     2/ 9
CASHES LEDGE BUO 1950   71                 1012.6F   3/ 8
GEORGES BANK BUO 1950   65 67  280/  6/  8 1013.5F   4/ 8
$$

.............KEY..............
   WCI - WIND CHILL
   TC  - TEMPERATURE IN CELSIUS
   VSB - VISIBILITY IN MILES
   HX  - HEAT INDEX
   FAIR- INDICATES FEW OR NO CLOUDS BELOW 12,000 FT, WITH NO
         SIGNIFICANT WEATHER AND/OR OBSTRUCTIONS TO VISIBILITY.





USA.gov is the U.S. government's official web portal to all federal, state and local government web resources and services.